2013 Kenora Mother's Day Charity Road Race | Zone4.ca



2013 Kenora Mother's Day Charity Road Race

Date: May 12, 2013
Unofficial  Results
Location: Kenora
Host Club: Kenora Borealis

Officials
Race Director:   
Chief of Competition:   
Chief of Timing:   
Obs. Time:
Wind Vel:   Wind Dir:
Temperature: Sky Cond:
Weather: Humidity:

Youth Walk 5k 5 km. Mass Start    
PL Bib Name Time Diff
1 101 Jesse McIsaac 0:43:18.8  
2 182 Joe Morrison 0:46:11.5 +2:52.6
3 113 Cambrya Swejda 0:47:47.9 +4:29.1
4 102 Kayla Martin 0:50:39.6 +7:20.8
5 112 Ashley Moon 0:52:38.6 +9:19.7
6 108 Erin  Lockhart 0:57:56.6 +14:37.7
7 103 Aidan Jack-Tom 1:00:34.3 +17:15.5
8 106 Ethan Belrose 1:01:08.2 +17:49.4
9 181 Kayleigh Morrison 1:06:44.3 +23:25.5
10 105 Megan Belrose 1:12:59.5 +29:40.7
11 104 Tyler Belrose 1:15:24.1 +32:05.2
12 107 Issebella Carlson *** ***
13 110 Anwyn Friesen Kroeker *** ***
14 111 Katarina Friesen Kroeker *** ***

Adult Walk 5k 5 km. Mass Start    
PL Bib Name Time Diff
1 116 Zoe Simkin 0:42:04.2  
2 159 Amanda McIsaac 0:44:30.6 +2:26.4
2 162 Kyle  McIsaac 0:44:30.6 +2:26.4
4 157 Roy Tom 0:47:36.0 +5:31.8
5 179 Denis Hahr 0:47:59.4 +5:55.1
6 118 Bev Beach 0:48:21.6 +6:17.3
7 135 Beth Vaudry 0:48:45.6 +6:41.3
8 134 Gale Clemmens 0:48:45.7 +6:41.5
9 158 Angela Martin 0:50:39.4 +8:35.2
10 129 Teresa  Olson 0:51:02.5 +8:58.2
11 114 Norine Moorey 0:51:02.7 +8:58.5
12 128 Patti  Edie 0:51:06.5 +9:02.2
13 125 Janice DePorto 0:51:12.8 +9:08.6
14 178 Katie Sharpe 0:51:18.3 +9:14.1
15 185 Jane Walkertin 0:51:41.4 +9:37.2
16 140 Ginnie Hintz 0:52:36.9 +10:32.7
17 144 Deb Spendlow 0:53:01.8 +10:57.6
17 163 Kelly McDougall 0:53:01.8 +10:57.6
19 133 Erica Johnson 0:54:59.2 +12:55.0
20 152 Jen Hall 0:55:32.3 +13:28.1
21 146 Barb Hall 0:55:32.9 +13:28.7
22 154 Deanna Olszewski 0:55:33.0 +13:28.7
23 147 Lisa LeBlanc 0:56:01.4 +13:57.2
24 169 Janelle Devlin 0:56:02.2 +13:58.0
25 137 Liz Garrow 0:56:03.7 +13:59.5
25 145 Cierra Garrow 0:56:03.7 +13:59.5
27 164 Stephanie Wolfe 0:56:05.4 +14:01.2
28 165 Andrew Scott 0:56:08.1 +14:03.8
29 177 Lynn Danielson 0:56:12.1 +14:07.8
30 156 jane tom 0:56:26.5 +14:22.2
31 139 Dolores Pizzi 0:56:43.0 +14:38.7
31 131 Joy Anne Tolen 0:56:43.0 +14:38.7
33 168 George Lockhart 0:57:56.5 +15:52.2
34 120 Chelsea Socholotuk 0:59:18.8 +17:14.5
35 122 Jen Carlson 0:59:19.1 +17:14.9
36 151 Judy Belrose 1:01:10.1 +19:05.9
37 161 Alyson Candline 1:01:36.5 +19:32.2
38 171 Bill Candline 1:01:36.6 +19:32.4
39 170 Mary Candline 1:01:44.4 +19:40.2
40 123 Robin Frieling 1:01:51.2 +19:47.0
41 115 Mandi  Fawcett 1:02:22.0 +20:17.7
42 138 Paul Warkentin 1:04:56.3 +22:52.0
43 148 Gladys  Thomas 1:05:11.2 +23:07.0
44 174 Marcy Ashdown 1:06:28.1 +24:23.9
45 175 Annie Ashdown 1:06:29.6 +24:25.4
46 180 Helen Morrison 1:07:28.7 +25:24.5
47 172 Janna Hall 1:07:48.5 +25:44.2
48 173 Joan Schelske  1:08:19.8 +26:15.5
49 124 Connie Aitken 1:08:55.0 +26:50.7
50 127 Robert Aitken 1:08:58.6 +26:54.4
51 183 Lana Goodman 1:10:53.1 +28:48.9
52 184 Marc Bissonnette 1:10:55.1 +28:50.9
53 155 Michael Alvestad 1:12:11.7 +30:07.5
54 141 Pat Alvestad 1:12:11.8 +30:07.5
55 149 Trevor Belrose 1:12:59.6 +30:55.4
56 150 Michelle Thomas 1:14:31.3 +32:27.0
57 119 Joel Kroeker *** ***
58 121 Cindy Vergunst *** ***
59 130 Colette Surovy *** ***
60 132 Ashlynne Surovy *** ***
61 136 Orlo Mejia *** ***
62 142 Tannis  Romaniuk *** ***
63 143 Greg Romaniuk *** ***
64 153 Denise Brough *** ***
65 160 Evelyn Crowe *** ***
66 166 Laurine Goerzen *** ***
67 167 Theresa Thorgrimson *** ***
68 176 Henry  Goerzen *** ***

Youth Male 5K Run 5 km. Mass Start    
PL Bib Name Time Diff
1 205 Dustin Scheibler 0:26:00.8  
2 201 Hayden Findlay 0:28:28.9 +2:28.0
3 202 Liam Candline 0:32:14.7 +6:13.8
4 200 Tyson Silvester 0:47:15.4 +21:14.5
5 204 Jacob Weedon 0:47:32.5 +21:31.7
6 203 klyde laplante 0:48:40.4 +22:39.5
7 342 Liam Kyle 0:51:33.8 +25:33.0

Youth Female 5K Run 5 km. Mass Start    
PL Bib Name Time Diff
1 219 Abbey Major 0:28:16.0  
2 211 Eve Charlebois 0:29:12.5 +56.5
3 220 Alexandra Illman 0:29:49.2 +1:33.2
4 218 Leah Alvestad 0:32:36.0 +4:20.0
5 228 Ava Tom 0:32:50.2 +4:34.1
5 221 Amelia Illman 0:32:50.2 +4:34.1
7 208 Cassidy Swejda 0:33:44.4 +5:28.3
8 213 carrie jean nagy 0:35:58.2 +7:42.1
9 223 August Hummelbrunner 0:36:17.5 +8:01.5
10 229 Victoria Beaudry 0:36:18.3 +8:02.3
11 341 Ella Kyle 0:36:22.5 +8:06.5
12 210 Breeze  Boucha 0:36:28.4 +8:12.3
13 217 Paige Andrews 0:37:39.5 +9:23.5
14 344 Carrie Gallik 0:38:11.5 +9:55.5
15 216 Morgan  Saelens 0:38:19.4 +10:03.3
16 212 Presley Brohm 0:41:39.2 +13:23.2
17 215 Ella Hammett 0:43:54.0 +15:38.0
18 222 Elise Hummelbrunner 0:45:38.2 +17:22.2
19 224 Jordan  St Germain 0:45:39.4 +17:23.4
20 225 kennedy St Germain 0:46:56.8 +18:40.7
21 207 Olivia Ura 0:47:47.8 +19:31.7
22 206 Olivia Friesen Kroeker *** ***
23 209 Shayna Hensrud *** ***
24 214 Maeve Hammett *** ***
25 227 Chandra Tomkins *** ***

Adult Male 5K Run 5 km. Mass Start    
PL Bib Name Time Diff
1 233 Kyle Derouard 0:22:39.7  
2 231 Mike Pizzi 0:23:37.6 +57.8
3 244 Tim Wehner 0:24:40.3 +2:00.5
4 235 Mark Scheibler 0:25:38.7 +2:59.0
5 230 David Lichty 0:26:38.2 +3:58.5
6 254 Jarrett Weedon 0:27:22.5 +4:42.8
7 343 Jason Canfield 0:27:22.6 +4:42.8
8 252 John McDougall 0:27:58.6 +5:18.8
9 250 David White 0:28:09.1 +5:29.3
10 236 Anthony Smaha 0:28:19.8 +5:40.1
11 346 Mike Pinaeiro 0:28:36.0 +5:56.3
12 246 Brad Wiebe 0:28:49.1 +6:09.3
13 232 Bill Scribilo 0:29:20.3 +6:40.6
14 245 BARRY MCLEOD 0:29:26.4 +6:46.6
15 240 James Brohm 0:29:29.9 +6:50.1
16 348 Bruce Anderson 0:29:51.4 +7:11.6
17 255 Rob Roteliuk 0:31:14.5 +8:34.7
18 257 Richard Findlay 0:31:35.8 +8:56.1
19 258 Gary  Williams 0:32:33.2 +9:53.5
20 253 Roy Teahan 0:37:00.7 +14:21.0
21 237 Jolen Opyc 0:39:41.0 +17:01.2
22 256 Robbie Lecot 0:40:46.8 +18:07.0
23 424 Clayton Kelly 0:41:54.0 +19:14.2
24 248 ReNae Moran 0:43:47.2 +21:07.5
25 243 Clay  Hammett 0:43:54.1 +21:14.4
26 340 David Kyle 0:51:33.5 +28:53.7
27 234 Rob Dokuchie 1:05:16.6 +42:36.9
28 242 Dennis Alvestad 1:12:11.8 +49:32.0
29 241 Jim Steele 1:12:13.1 +49:33.4
30 238 Brad Doerksen *** ***
31 239 Garry Gerbrandt *** ***
32 247 Reid Thompson *** ***
33 249 Robbie Robinson *** ***

Adult Female 5K Run 5 km. Mass Start    
PL Bib Name Time Diff
1 263 Lisa Doerksen 0:25:50.4  
2 427 Jennifer Marquis 0:26:54.7 +1:04.2
3 322 Samantha Scribilo 0:27:07.5 +1:17.0
4 314 Diane Findlay 0:28:32.5 +2:42.0
5 262 Jennifer  Findlay 0:28:41.2 +2:50.8
6 430 Laurel Gosselin 0:28:46.5 +2:56.0
7 280 Tanis Geary 0:29:27.6 +3:37.1
8 282 Morgan Hamp 0:30:15.0 +4:24.6
9 304 Shannon Robinson 0:30:15.4 +4:25.0
10 299 Andrea Roteliuk 0:30:23.1 +4:32.6
11 277 Emily Rosewarne 0:30:30.2 +4:39.8
12 330 Melanie Kozak 0:30:37.9 +4:47.5
13 298 Heather Kirkpatrick 0:30:44.6 +4:54.1
14 272 Nicole  Gagne 0:31:19.9 +5:29.5
15 428 Irene Peltier 0:31:47.6 +5:57.1
16 261 Kelly Wagar 0:31:58.2 +6:07.8
17 335 Suzanne Langlois-White 0:32:51.4 +7:01.0
18 270 Kristina Pizzi 0:33:00.3 +7:09.8
19 336 Olivia Roberts 0:33:02.1 +7:11.6
20 347 Kerry Anderson 0:33:07.9 +7:17.5
21 316 Valdine McEwen 0:33:11.0 +7:20.6
22 337 Kim Beaudry 0:33:15.3 +7:24.8
23 302 Jana-Rae Illman 0:33:16.2 +7:25.8
24 426 Jennifer Marquis 0:33:19.2 +7:28.8
25 311 Kelsey Scribilo 0:33:20.4 +7:30.0
26 260 Renee  Letander 0:33:31.6 +7:41.1
27 290 Lisa  Wilcott 0:33:33.1 +7:42.6
28 289 Cindy  Johnson 0:33:45.7 +7:55.3
29 324 Cheryl Dyck 0:33:54.5 +8:04.1
30 264 Allie Doerksen 0:33:58.4 +8:08.0
31 345 Carolyn Lacroix 0:34:11.5 +8:21.1
32 300 Deb Teahan 0:34:15.4 +8:25.0
33 281 Colleen Neil 0:34:27.5 +8:37.1
34 319 Nicole Sherrington 0:34:49.5 +8:59.1
35 276 Jaclyn Finney 0:34:49.6 +8:59.2
36 301 Emma Lockhart 0:35:23.1 +9:32.7
37 410 Jennifer Hughes 0:35:23.8 +9:33.3
38 284 Serena Joseph 0:35:49.8 +9:59.3
39 310 Alyssa Edison 0:35:54.8 +10:04.3
40 312 Amber Halley 0:35:58.2 +10:07.7
40 274 judy nagy 0:35:58.2 +10:07.7
42 291 Tracy Munn 0:35:58.3 +10:07.8
43 325 Kerry Dell Robertson 0:36:12.3 +10:21.8
44 273 kristi tella 0:36:26.7 +10:36.2
45 271 Tammy Opyc 0:36:26.9 +10:36.5
46 296 Jackie Robinson 0:36:34.2 +10:43.7
47 308 Alexie Canfield 0:36:39.2 +10:48.7
48 328 Jennifer Young 0:36:39.3 +10:48.8
49 279 Stacey Greer 0:36:40.9 +10:50.5
50 331 sheryl hyatt 0:37:20.5 +11:30.1
51 329 Liz Andrews 0:37:39.5 +11:49.1
52 323 Ruth Illman 0:37:53.7 +12:03.2
53 288 Erin Robinson 0:37:54.2 +12:03.7
54 307 sheryl  carlyle 0:38:22.6 +12:32.2
55 425 Bonnie Kelly 0:39:01.5 +13:11.1
56 292 Darci Everson 0:39:19.2 +13:28.7
57 269 Jessica Opyc 0:39:41.3 +13:50.8
58 305 Carol  Fehr 0:39:49.5 +13:59.1
59 294 Lydia Lecot 0:40:46.9 +14:56.5
60 303 Karen Hamp 0:41:01.3 +15:10.8
61 315 valerie chagnon 0:41:16.5 +15:26.1
62 268 Amber Brohm 0:41:44.0 +15:53.6
63 326 Josie Groen 0:41:56.2 +16:05.7
64 318 Shelley Houlden 0:42:12.6 +16:22.2
65 349 Louise Tresoor 0:43:00.4 +17:10.0
66 333 Leanne Shelvey 0:43:09.5 +17:19.0
67 286 Victoria Swejda 0:43:44.1 +17:53.7
68 265 Julie Gerbrandt 0:44:46.2 +18:55.7
69 266 Ricki-Lee Gerbrandt 0:44:46.5 +18:56.0
70 287 Ida Copenace 0:45:08.4 +19:18.0
71 309 tina spedding 0:45:46.0 +19:55.5
72 327 Deb Weedon 0:47:35.6 +21:45.2
73 283 Jennifer Ura 0:47:52.9 +22:02.5
74 267 Kerri Tolen 0:48:39.2 +22:48.7
75 306 Kelly Williams 0:49:26.8 +23:36.4
76 259 Mary Otakwadjiwan 1:02:22.8 +36:32.4
77 295 Megan Dokuchie 1:05:17.0 +39:26.5
78 320 Wendy Fulton 1:11:57.0 +46:06.5
79 275 Linda Alvestad 1:11:57.1 +46:06.6
80 285 Kyla Henry *** ***
81 293 Maria Bagdonas *** ***
82 297 Devon Schneider *** ***
83 313 Tanis Tom *** ***
84 321 Chantal Tycholiz *** ***
85 332 Holly Friesen *** ***
86 334 Hannah Findlay-Lacourciere *** ***

Youth Male 10K Run 10 km. Mass Start    
PL Bib Name Time Diff
1 351 Owen Doerksen 0:46:07.9  
2 352 Dustin Moncrief 0:59:08.7 +13:00.7
3 353 Jakob Rasmussen *** ***

Youth Female 10K Run 10 km. Mass Start    
PL Bib Name Time Diff
1 356 Rowan Schott 0:57:20.5  
2 354 Sadie McCallum 0:58:53.2 +1:32.7
2 359 Brooklynn Francis 0:58:53.2 +1:32.7
4 360 Claire Hensrud 1:01:18.5 +3:58.0
5 358 Karly Lockhart 1:01:18.6 +3:58.0
6 357 Katie Lockhart *** ***

Adult Male 10K Run 10 km. Mass Start    
PL Bib Name Time Diff
1 433 Corey Gallager 0:33:03.4  
2 379 Ben Gustafson 0:39:33.7 +6:30.3
3 374 Adam Johnston 0:41:13.3 +8:09.8
4 369 Matt Yeo 0:44:41.5 +11:38.1
5 362 Daniel  Perreault 0:46:29.5 +13:26.1
6 363 Brent  Goodz 0:46:33.2 +13:29.7
7 429 Mark Hildahl 0:47:39.5 +14:36.1
8 370 Jimmy Carambetsos 0:49:05.0 +16:01.6
9 382 RJ Moran 0:49:06.3 +16:02.8
10 368 Donald  Copenace 0:49:28.2 +16:24.7
11 364 jack bell 0:51:47.3 +18:43.9
12 432 David Craven 0:51:52.0 +18:48.5
13 367 Jordon Christie 0:52:13.1 +19:09.7
14 381 Scott Lockhart 0:52:39.2 +19:35.7
15 383 Jeff Bereza 0:55:46.4 +22:43.0
16 385 Brooks Francis 0:59:00.6 +25:57.2
17 366 Cameron Chambers 1:00:14.7 +27:11.2
18 384 Robert Onysko 1:02:59.8 +29:56.4
19 378 Laurence Hunt 1:03:53.4 +30:50.0
20 377 Brad Duggan 1:05:31.9 +32:28.5
21 376 John Tsentouros 1:05:33.5 +32:30.0
22 372 geordie meek 1:08:30.6 +35:27.1
23 350 Mark Hildahl *** ***
24 361 Craig Olsen *** ***
25 365 Aaron Affleck *** ***
26 371 Scott DeGagne *** ***
27 375 Peter Kirby *** ***

Adult Female 10K Run 10 km. Mass Start    
PL Bib Name Time Diff
1 413 Victoria Alexander 0:42:34.5  
2 417 Janet Findlay 0:43:22.2 +47.7
3 400 Linda Wilson 0:47:06.7 +4:32.1
4 401 Sarah  Goold 0:48:09.1 +5:34.6
5 387 Denise Adams 0:50:26.0 +7:51.5
6 403 Tracy Morwood 0:50:41.1 +8:06.6
7 390 erika lougheed 0:52:41.6 +10:07.1
8 421 Heidi Smith 0:52:43.0 +10:08.5
9 422 Hayley Andres 0:52:44.6 +10:10.1
10 386 Ingrid  Braun 0:53:17.2 +10:42.7
11 411 Julie Paton 0:53:28.7 +10:54.2
12 393 Christine Hay 0:53:28.8 +10:54.2
13 431 Fay Clark 0:53:52.4 +11:17.8
14 408 Emily Meronyk 0:54:03.7 +11:29.2
15 389 Ariel  Root 0:55:21.4 +12:46.8
16 395 Nicole Medland 0:57:36.5 +15:02.0
17 397 Rilee Chambers 0:57:48.1 +15:13.6
18 415 Laurie Carambetsos 0:58:34.9 +16:00.3
19 394 Beth Taylor Greig 0:58:35.7 +16:01.2
20 392 Sharon Neufeld 0:59:09.9 +16:35.3
21 402 Patty McLeod 0:59:47.7 +17:13.2
22 416 Kim Major 1:00:06.2 +17:31.7
23 418 Betsy Harris 1:02:24.1 +19:49.5
24 409 Natasha Tom-McGinnis 1:02:25.6 +19:51.0
25 414 Carmen Marginet 1:02:31.3 +19:56.7
26 423 Katrina Onysko 1:02:44.8 +20:10.2
27 388 Lynda Moncrief 1:04:24.9 +21:50.4
28 405 Lynne Bereza 1:05:25.1 +22:50.5
29 406 Gillian Neill 1:06:09.5 +23:35.0
30 399 Roxanne Chambers 1:06:16.5 +23:42.0
31 420 Roxanne Meek 1:08:29.7 +25:55.2
32 419 Weronika Luczkanin 1:09:40.1 +27:05.5
33 398 Nicole Chambers 1:11:10.9 +28:36.4
34 391 Megan Shewfelt *** ***
35 396 Deb Normand *** ***
36 404 Olivia Shaw *** ***
37 407 Morning Star Tom *** ***
38 412 Cheryl Hicks *** ***


Results are posted through an automated system by licenced clubs. For inquires about result corrections please contact the race organizer.

Copyright 2020 - Zone4 Systems zone4.ca       Privacy Policy     Delivery/Refund Policy     Terms of Service    Contact Zone4